TimeCDT,TemperatureF,Dew PointF,Humidity,Sea Level PressureIn,VisibilityMPH,Wind Direction,Wind SpeedMPH,Gust SpeedMPH,PrecipitationIn,Events,Conditions,WindDirDegrees,DateUTC
12:53 AM,70.0,66.9,90,29.91,8.0,SE,3.5,-,N/A,,Partly Cloudy,130,2013-04-30 05:53:00
1:53 AM,70.0,66.9,90,29.90,7.0,ESE,3.5,-,N/A,,Scattered Clouds,120,2013-04-30 06:53:00
2:53 AM,69.1,66.9,93,29.89,7.0,Calm,Calm,-,N/A,Fog,Shallow Fog,0,2013-04-30 07:53:00
3:53 AM,66.9,64.9,93,29.89,6.0,Calm,Calm,-,N/A,Fog,Shallow Fog,0,2013-04-30 08:53:00
4:53 AM,66.9,64.9,93,29.88,4.0,Calm,Calm,-,N/A,Fog,Shallow Fog,0,2013-04-30 09:53:00
5:46 AM,69.8,66.2,88,29.88,3.0,East,4.6,-,N/A,Fog,Shallow Fog,100,2013-04-30 10:46:00
5:53 AM,69.1,66.9,93,29.89,3.0,East,4.6,-,N/A,Fog,Shallow Fog,90,2013-04-30 10:53:00
6:19 AM,69.8,66.2,88,29.88,4.0,East,5.8,-,N/A,Fog,Shallow Fog,100,2013-04-30 11:19:00
6:30 AM,69.8,66.2,88,29.89,2.0,ENE,5.8,-,N/A,Fog,Shallow Fog,70,2013-04-30 11:30:00
6:50 AM,69.8,68.0,94,29.89,0.2,East,4.6,-,N/A,Fog,Shallow Fog,90,2013-04-30 11:50:00
6:53 AM,69.1,68.0,96,29.90,0.2,East,5.8,-,N/A,Fog,Shallow Fog,90,2013-04-30 11:53:00
7:20 AM,69.8,68.0,94,29.88,1.0,East,4.6,-,N/A,Fog,Shallow Fog,90,2013-04-30 12:20:00
7:38 AM,71.6,69.8,94,29.89,2.0,East,4.6,-,N/A,Fog,Shallow Fog,90,2013-04-30 12:38:00
7:53 AM,72.0,69.1,91,29.91,2.0,East,6.9,-,N/A,Fog,Shallow Fog,90,2013-04-30 12:53:00
8:08 AM,73.4,69.8,88,29.89,3.0,East,6.9,-,N/A,,Scattered Clouds,80,2013-04-30 13:08:00
8:38 AM,73.4,69.8,88,29.90,5.0,East,5.8,-,N/A,,Mostly Cloudy,100,2013-04-30 13:38:00
8:53 AM,73.9,69.1,85,29.91,5.0,East,5.8,-,N/A,,Haze,90,2013-04-30 13:53:00
9:53 AM,75.9,68.0,76,29.91,10.0,East,6.9,-,N/A,,Overcast,100,2013-04-30 14:53:00
10:19 AM,75.2,68.0,78,29.90,10.0,SE,11.5,-,N/A,,Overcast,130,2013-04-30 15:19:00
10:53 AM,77.0,68.0,74,29.92,10.0,SE,10.4,-,N/A,,Overcast,130,2013-04-30 15:53:00
11:39 AM,75.2,68.0,78,29.91,10.0,SE,11.5,-,N/A,,Overcast,130,2013-04-30 16:39:00
11:53 AM,75.9,68.0,76,29.91,10.0,ESE,10.4,-,N/A,,Overcast,120,2013-04-30 16:53:00
12:07 PM,75.2,68.0,78,29.90,10.0,SE,8.1,-,N/A,,Overcast,130,2013-04-30 17:07:00
12:53 PM,75.9,68.0,76,29.92,10.0,SSE,16.1,32.2,N/A,Thunderstorm,Thunderstorm,160,2013-04-30 17:53:00
1:07 PM,66.2,62.6,88,29.91,1.2,South,13.8,26.5,0.07,Rain-Thunderstorm,Thunderstorms and Rain,190,2013-04-30 18:07:00
1:18 PM,66.2,64.4,94,29.92,1.5,South,12.7,-,0.37,Rain-Thunderstorm,Heavy Thunderstorms and Rain,170,2013-04-30 18:18:00
1:40 PM,66.2,64.4,94,29.90,5.0,South,9.2,-,0.42,Rain-Thunderstorm,Light Thunderstorms and Rain,170,2013-04-30 18:40:00
1:53 PM,66.9,64.0,90,29.92,6.0,SE,9.2,-,0.43,Rain,Light Rain,130,2013-04-30 18:53:00
2:53 PM,68.0,64.0,87,29.89,7.0,ESE,5.8,-,0.13,Rain,Light Rain,120,2013-04-30 19:53:00
3:53 PM,70.0,64.9,84,29.86,10.0,Calm,Calm,-,0.02,Rain,Light Rain,0,2013-04-30 20:53:00
4:53 PM,71.1,64.9,81,29.86,10.0,SSW,3.5,-,0.00,,Overcast,200,2013-04-30 21:53:00
5:53 PM,71.1,64.9,81,29.85,10.0,ESE,4.6,-,N/A,,Overcast,110,2013-04-30 22:53:00
6:53 PM,71.1,64.0,78,29.87,10.0,East,5.8,-,N/A,,Overcast,80,2013-04-30 23:53:00
7:53 PM,70.0,64.9,84,29.88,10.0,East,8.1,-,N/A,,Mostly Cloudy,90,2013-05-01 00:53:00
8:04 PM,69.8,64.4,83,29.87,10.0,East,5.8,-,N/A,,Overcast,80,2013-05-01 01:04:00
8:19 PM,69.8,64.4,83,29.87,10.0,ENE,8.1,-,N/A,,Overcast,60,2013-05-01 01:19:00
8:29 PM,69.8,64.4,83,29.87,10.0,East,9.2,-,N/A,,Overcast,80,2013-05-01 01:29:00
8:38 PM,69.8,64.4,83,29.87,10.0,ENE,9.2,-,N/A,,Overcast,70,2013-05-01 01:38:00
8:53 PM,70.0,66.0,87,29.89,10.0,East,8.1,-,N/A,,Overcast,80,2013-05-01 01:53:00
9:09 PM,69.8,66.2,88,29.88,10.0,East,6.9,-,N/A,,Overcast,90,2013-05-01 02:09:00
9:53 PM,70.0,66.0,87,29.89,10.0,SE,6.9,-,N/A,,Mostly Cloudy,130,2013-05-01 02:53:00
10:23 PM,69.8,66.2,88,29.88,10.0,East,6.9,-,N/A,,Scattered Clouds,90,2013-05-01 03:23:00
10:53 PM,70.0,66.0,87,29.89,10.0,East,5.8,-,N/A,,Mostly Cloudy,100,2013-05-01 03:53:00
11:53 PM,69.8,66.2,88,29.88,10.0,East,4.6,-,N/A,,Scattered Clouds,100,2013-05-01 04:53:00